sat.trackr.live / text

‹ back to catalog

KUIPER-00198

NORAD 67770 · 2026-030G

PAYLOAD ACTIVE UNKNOWN

§ Identity

Operator
Country
US
Launch date
2026-02-12
Launch site
FRGUI
Launch vehicle
Mass (kg)
RCS (m²)

External: N2YO · Heavens-Above · Gunter

§ Orbital elements

Epoch: 2026-05-25T05:02:57.372864Z

Period
97.30 min
Inclination
51.8971°
Eccentricity
0.0000400
Mean motion
14.79918831 rev/d
Perigee alt
629.3 km
Apogee alt
629.9 km
Semi-major
7,007.7 km
B*
3.9421e-4
RAAN
222.2417°
Arg perigee
98.6476°
Mean anomaly
261.4532°
Rev number
1,668

§ Raw data

KUIPER-001981 67770U 26030G   26145.21038626  .00002784  00000+0  39421-3 0  99962 67770  51.8971 222.2417 0000400  98.6476 261.4532 14.79918831 16689

JSON: /api/v1/satellites/67770 · /tle

For live sub-satellite position, see the globe view (requires WebGL).

§ Visibility from observer

Set your observer location to see the next 7 days of passes ≥ 10°. The values pass through the URL so the page stays shareable.

No JS? Fill the form by hand. The geolocation button needs JavaScript.